CST,Max TemperatureF,Mean TemperatureF,Min TemperatureF,Max Dew PointF,MeanDew PointF,Min DewpointF,Max Humidity, Mean Humidity, Min Humidity, Max Sea Level PressureIn, Mean Sea Level PressureIn, Min Sea Level PressureIn, Max VisibilityMiles, Mean VisibilityMiles, Min VisibilityMiles, Max Wind SpeedMPH, Mean Wind SpeedMPH, Max Gust SpeedMPH,PrecipitationIn, CloudCover, Events, WindDirDegrees
2013-1-1,34,27,19,34,27,15,100,89,80,30.25,30.15,30.07,10,6,1,10,2,,0.00,7,,341
2013-1-2,30,20,9,16,13,8,94,79,44,30.31,30.26,30.22,10,9,5,5,0,,0.00,0,,11
2013-1-3,36,22,8,29,19,6,98,87,71,30.41,30.33,30.24,10,8,2,9,3,,0.00,1,,233
2013-1-4,36,26,16,29,23,15,97,84,62,30.47,30.40,30.36,10,8,1,9,4,,0.00,2,,209
2013-1-5,40,28,17,33,28,16,99,88,70,30.37,30.28,30.17,10,7,0,13,5,,0.00,5,Fog,179
2013-1-6,38,28,19,35,29,18,98,84,71,30.41,30.24,30.10,10,7,0,21,10,24,0.00,5,Fog,260
2013-1-7,36,24,13,32,23,12,99,92,78,30.48,30.36,30.23,7,4,0,10,2,,0.00,2,Fog,140
2013-1-8,43,32,21,35,30,20,98,87,73,30.29,30.22,30.18,10,7,1,9,4,,0.00,3,,140
2013-1-9,48,42,36,47,39,34,100,96,81,30.49,30.38,30.22,10,3,0,9,3,,0.16,5,Fog-Rain,125
2013-1-10,60,48,38,60,45,35,99,94,82,30.47,30.18,29.87,10,5,0,18,8,28,0.23,7,Fog-Rain,92
2013-1-11,62,56,50,60,52,47,96,86,71,29.97,29.91,29.86,10,9,3,18,11,24,0.41,2,Rain-Thunderstorm,183
2013-1-12,67,58,47,64,57,46,96,92,82,29.97,29.86,29.65,10,7,2,24,10,29,1.44,5,Rain-Thunderstorm,160
2013-1-13,46,36,25,45,32,22,98,93,83,30.32,30.05,29.80,10,7,1,21,13,23,0.94,7,Rain-Thunderstorm,317
2013-1-14,28,25,22,23,21,18,91,84,78,30.47,30.41,30.33,10,10,10,13,8,,0.00,1,,310
2013-1-15,32,28,23,28,25,22,94,86,78,30.38,30.26,30.11,10,9,4,17,8,,0.00,4,,342
2013-1-16,35,33,31,30,28,24,92,82,65,30.14,30.11,30.06,10,9,7,10,6,,0.00,3,,274
2013-1-17,44,36,28,36,30,26,96,82,66,30.50,30.27,30.13,10,8,5,22,5,28,0.00,1,,326
2013-1-18,45,35,25,34,29,24,96,79,59,30.55,30.42,30.23,10,10,7,16,6,20,0.00,0,,178
2013-1-19,57,48,40,40,34,28,79,58,43,30.23,30.10,29.96,10,10,7,26,16,33,0.00,0,,205
2013-1-20,44,36,27,39,23,15,83,63,40,30.33,30.24,30.08,10,10,7,16,9,22,0.00,0,,332
2013-1-21,29,26,24,22,12,3,78,57,35,30.33,30.29,30.23,10,10,10,23,12,33,0.00,1,,299
2013-1-22,,,,,,,,,,,,,,,,,,,,,,
2013-1-23,,,,,,,,,,,,,,,,,,,,,,
2013-1-24,,,,,,,,,,,,,,,,,,,,,,
2013-1-25,,,,,,,,,,,,,,,,,,,,,,
2013-1-26,37,32,28,26,23,18,85,70,46,30.38,30.36,30.34,10,10,7,7,4,,0.00,0,,59
2013-1-27,44,36,27,43,33,23,99,92,79,30.36,30.24,30.06,10,5,2,17,8,,0.13,5,Rain,125
2013-1-28,59,50,42,56,50,41,97,93,82,30.09,30.04,30.00,10,6,0,18,10,25,0.14,7,Fog-Rain,164
2013-1-29,70,62,54,61,58,52,95,85,73,30.00,29.76,29.41,10,8,5,32,16,40,0.44,6,Rain-Thunderstorm,169
2013-1-30,58,45,32,53,42,22,97,86,67,29.88,29.55,29.38,10,9,2,34,14,44,1.03,8,Rain,242
2013-1-31,38,29,19,32,22,12,95,69,58,30.31,30.04,29.89,10,10,5,29,17,37,0.00,7,Snow,270